COSMOS 1275 DEB, 12723

Orbit data source: Space-Track

COSMOS 1275 DEB, 12723 is space debris in LEO originally from a launch on Thu, 04 Jun 1981 UTC launched from the Plesetsk Missile And Space Complex (PKMTR). Debris objects in space refer to the collection of defunct objects orbiting the Earth. Examples of debris include non-operational satellites, rocket bodies, and fragments generated from explosions, collisions, or faulty payload assembly.

Loading next visibility...
Identifier
12723, 1981-053BQ
Orbit
LEO
Country
Flag of CISCIS
Related business
Manufacturer
Unknown
Mission
Spacecraft
Bus & Motor
Unknown
Mass
Unknown
Launch date (UTC)
1981-06-04 (45 years ago)
Launch vehicle
Unknown
Launch site
Plesetsk Missile And Space Complex (PKMTR)
Object type
Payload
Rocket body
Debris
Shape & HBR
Unknown shape, 0.1 m
Radar Cross Section
Small (<0.1 m²)

Expand to show TLE details & history
Last TLE update: 11 hours ago

TLE from 11 hours ago
0 COSMOS 1275 DEB
1 12723U 81053BQ  26124.02832830  .00018317  00000-0  24645-2 0  9996
2 12723  82.9343 235.4420 0001513 176.8230 183.2994 14.79143474305247
Epoch: 2026-05-04T00:40Z
TLE epoch observation values (Epoch: 2026-05-04T00:40:47.565Z)
Latitude
0.00003°
Longitude
3.32041°
Altitude
636.132 km
Speed
7.54 km/s
True Right ascension
15h 41m 46s
True Declination
0° 00' 00"
Sunlit
Object was in full shadow at epoch
Visualization orbit readout
Latitude
Unknown
Longitude
Unknown
Altitude
Unknown
Speed
Unknown
Apparent Right ascension
Unknown
Apparent Declination
Unknown
Sunlit
N/A
Visualization observer readout
Local Sidereal Time
19:05:12
Azimuth
Unknown
Elevation
Unknown
Doppler factor
Unknown
Orbital elements
Apogee altitude
630.096 km
Perigee altitude
627.975 km
Semi-major axis
7,007.173 km
Eccentricity
0.00015
Inclination
82.9343°
RAAN
235.442°
Arg. of periapsis
176.823°
True anomaly
183.2984°
Mean anomaly
183.2994°
Eccentric anomaly
183.2989°
Mean motion
3.70023 °/min
Orbital period
97.29 mins
BSTAR
0.0024645
Loading maneuver chart data...
Computing Atmospheric mass density...
Loading historical data...
Loading historical data...
Loading historical data...
Loading historical data...
Loading historical data...
Loading historical data...
Loading historical data...

Documentation

Showing up to 5 results
|